Location: B�rgermoos
(47.6500°N, 9.0667°E)
Time: 00:27:00
(UTC+00:00)

Tiros 1 - Pass Details

Date: 13 August 2021
Orbit: 630 x 663 km, 48.4° (Epoch: 16 September)

Event Time Altitude Azimuth Distance (km) Brightness Sun altitude
Rises 19:51:03 0° 278° (W) 2,982 11.7 -11.3°
Reaches altitude 10° 19:55:21 10° 241° (WSW) 2,056 10.0 -11.9°
Maximum altitude 19:56:27 11° 228° (SW) 2,001 9.8 -12.0°
Drops below altitude 10° 19:57:34 10° 214° (SW) 2,048 9.7 -12.2°
Enters shadow 20:00:50 - 183° (S) 2,663 10.0 -12.6°
Sets 20:01:49 0° 177° (S) 2,941 - -12.8°
